CZ-6A DEB, 55187

Orbit data source: Space-Track

CZ-6A DEB, 55187 is space debris in SSO originally from a launch on Fri, 11 Nov 2022 UTC launched from the Taiyaun Space Center, China (TSC). Debris objects in space refer to the collection of defunct objects orbiting the Earth. Examples of debris include non-operational satellites, rocket bodies, and fragments generated from explosions, collisions, or faulty payload assembly.

Loading next visibility...
Identifier
55187, 2022-151VC
Orbit
SSO
Country
Flag of CNCN / PRC
Related business
Manufacturer
SAST
Mission
Spacecraft
Bus & Motor
Unknown
Mass
Unknown
Launch date (UTC)
2022-11-11 (3 years ago)
Launch vehicle
Unknown
Launch site
Taiyaun Space Center, China (TSC)
Object type
Payload
Rocket body
Debris
Shape & HBR
Unknown shape, 0.1 m
Radar Cross Section
Small (<0.1 m²)

Expand to show TLE details & history
Last TLE update: 2 days ago

TLE from 2 days ago
0 CZ-6A DEB
1 55187U 22151VC  25351.54577053  .00005532  00000-0  20745-2 0  9994
2 55187  98.8078   6.3591 0066242 136.4835 224.1601 14.30841752157613
Epoch: 2025-12-17T13:05Z
TLE epoch observation values (Epoch: 2025-12-17T13:05:54.573Z)
Latitude
-0.00002°
Longitude
83.46763°
Altitude
826.063 km
Speed
7.422 km/s
True Right ascension
00h 25m 26s
True Declination
0° 00' 00"
Sunlit
Object was in daylight at epoch
Visualization orbit readout
Latitude
Unknown
Longitude
Unknown
Altitude
Unknown
Speed
Unknown
Apparent Right ascension
Unknown
Apparent Declination
Unknown
Sunlit
N/A
Visualization observer readout
Local Sidereal Time
17:04:26
Azimuth
Unknown
Elevation
Unknown
Doppler factor
Unknown
Orbital elements
Apogee altitude
833.524 km
Perigee altitude
738.61 km
Semi-major axis
7,164.204 km
Eccentricity
0.00662
Inclination
98.8078°
RAAN
6.3591°
Arg. of periapsis
136.4835°
True anomaly
223.63441°
Mean anomaly
224.1601°
Eccentric anomaly
223.89694°
Mean motion
3.57924 °/min
Orbital period
100.58 mins
BSTAR
0.0020745
Loading maneuver chart data...
Computing Atmospheric mass density...

Documentation

Showing up to 5 results
|